Powrót do katalogu

STARLINK-4188

AktywnyŁącznośćVLEO
NORAD 52843·PAYLOAD·🇺🇸 United States

Wystrzelony Jun 17, 2022 z Cape Canaveral Space Force Station

Loading…

Następne Przeloty (najbliższe 24 godziny)

TLE

ŚwieżeSource: CelesTrak SupGP

Epoka: Sep 15, 2026, 01:36 UTC

1 52843C 22062P   26258.06715278 -.00011467  00000+0 -36869-3 0  2586
2 52843  53.1572 254.1964 0001041  93.4082 103.1083 15.31712621    16

Śledź STARLINK-4188 w czasie rzeczywistym z AllMySat

Download on the App Store